,,Stat5,,Stat1,,Stat2,,Stat3,,Stat4,,Wind1,,Wind1,
time,status,PA1M_AVG,status,PR1M_SUM,status,RH1M_AVG,status,SR1M_AVG,status,TA1M_AVG,status,W1dAve1m,status,W1sAve1m,
2002-05-04, 00:00:01,VALID,915.018,VALID,0,VALID,94.217,VALID,0.0169808,VALID,21.4273,VALID,348,VALID,0.594401,
2002-05-04, 00:01:00,VALID,915.014,VALID,0,VALID,94.4866,VALID,0,VALID,21.3918,VALID,14,VALID,0.891892,
2002-05-04, 00:02:00,VALID,915.002,VALID,0,VALID,94.8528,VALID,0.0339617,VALID,21.3495,VALID,20,VALID,0.889824,
2002-05-04, 00:03:00,VALID,914.984,VALID,0,VALID,95.1059,VALID,0.0679233,VALID,21.3199,VALID,15,VALID,0.81989,
2002-05-04, 00:04:00,VALID,914.99,VALID,0,VALID,95.2673,VALID,0.0509425,VALID,21.2822,VALID,10,VALID,0.881836,
2002-05-04, 00:05:00,VALID,914.965,VALID,0,VALID,95.6234,VALID,0.0509425,VALID,21.2232,VALID,4,VALID,0.938101,
2002-05-04, 00:06:00,VALID,914.947,VALID,0,VALID,95.9934,VALID,0.0509425,VALID,21.1849,VALID,360,VALID,1.233,
2002-05-04, 00:07:00,VALID,914.94,VALID,0,VALID,96.2973,VALID,0.0169808,VALID,21.133,VALID,10,VALID,1.17736,
2002-05-04, 00:08:00,VALID,914.926,VALID,0,VALID,96.614,VALID,0.0679233,VALID,21.1103,VALID,5,VALID,1.41787,
2002-05-04, 00:09:00,VALID,914.939,VALID,0,VALID,96.8797,VALID,0.0679233,VALID,21.0977,VALID,356,VALID,1.41982,
2002-05-04, 00:10:00,VALID,914.933,VALID,0,VALID,97.0349,VALID,0.0339617,VALID,21.0912,VALID,10,VALID,1.42746,
2002-05-04, 00:11:00,VALID,914.933,VALID,0,VALID,97.115,VALID,0.0169808,VALID,21.0786,VALID,14,VALID,1.21434,
2002-05-04, 00:12:00,VALID,914.929,VALID,0,VALID,97.2231,VALID,0.0679233,VALID,21.0654,VALID,12,VALID,1.00063,
2002-05-04, 00:13:00,VALID,914.909,VALID,0,VALID,97.3629,VALID,0.0339617,VALID,21.0619,VALID,360,VALID,0.345703,
2002-05-04, 00:14:00,VALID,914.889,VALID,0,VALID,97.4392,VALID,0.0509425,VALID,21.0815,VALID,360,VALID,0.0394965,
2002-05-04, 00:15:00,VALID,914.856,VALID,0,VALID,97.466,VALID,0.0509425,VALID,21.1071,VALID,351,VALID,0.170025,
2002-05-04, 00:16:00,VALID,914.821,VALID,0,VALID,97.4787,VALID,0.0169808,VALID,21.13,VALID,282,VALID,0.404194,
2002-05-04, 00:17:00,VALID,914.808,VALID,0,VALID,97.4354,VALID,0.0679233,VALID,21.1362,VALID,237,VALID,0.543837,
2002-05-04, 00:18:00,VALID,914.792,VALID,0,VALID,97.3782,VALID,0.0679233,VALID,21.1518,VALID,239,VALID,0.425,
2002-05-04, 00:19:00,VALID,914.786,VALID,0,VALID,97.2968,VALID,0.0339617,VALID,21.175,VALID,239,VALID,0.162623,
2002-05-04, 00:20:00,VALID,914.79,VALID,0,VALID,97.2498,VALID,0.0169808,VALID,21.1782,VALID,239,VALID,0.0168586,
2002-05-04, 00:21:00,VALID,914.806,VALID,0,VALID,97.19,VALID,0.0509425,VALID,21.1879,VALID,239,VALID,0,
2002-05-04, 00:22:00,VALID,914.827,VALID,0,VALID,97.059,VALID,0.0509425,VALID,21.1882,VALID,235,VALID,0.301683,
2002-05-04, 00:23:00,VALID,914.838,VALID,0,VALID,96.8937,VALID,0.0509425,VALID,21.1593,VALID,61,VALID,0.817568,
2002-05-04, 00:24:00,VALID,914.854,VALID,0,VALID,96.7729,VALID,0.0679233,VALID,21.1365,VALID,68,VALID,0.852734,
2002-05-04, 00:25:00,VALID,914.859,VALID,0,VALID,96.6598,VALID,0.0849042,VALID,21.0842,VALID,79,VALID,0.804287,
2002-05-04, 00:26:00,VALID,914.877,VALID,0,VALID,96.8594,VALID,0.0509425,VALID,21.0621,VALID,83,VALID,0.647675,
2002-05-04, 00:27:00,VALID,914.877,VALID,0,VALID,96.9586,VALID,0.0849042,VALID,21.046,VALID,86,VALID,0.55511,
2002-05-04, 00:28:00,VALID,914.885,VALID,0,VALID,96.9993,VALID,0.0509425,VALID,21.0331,VALID,86,VALID,0.39886,
2002-05-04, 00:29:00,VALID,914.886,VALID,0,VALID,97.1048,VALID,0.0509425,VALID,21.0102,VALID,62,VALID,0.397436,
2002-05-04, 00:30:00,VALID,914.881,VALID,0,VALID,97.1862,VALID,0.0509425,VALID,21.0034,VALID,22,VALID,0.433488,
2002-05-04, 00:31:00,VALID,914.876,VALID,0,VALID,97.1811,VALID,0.0169808,VALID,21.001,VALID,22,VALID,0.417318,
2002-05-04, 00:32:00,VALID,914.849,VALID,0,VALID,97.2205,VALID,0.0339617,VALID,20.9913,VALID,22,VALID,0.328906,
2002-05-04, 00:33:00,VALID,914.817,VALID,0,VALID,97.2981,VALID,0.0509425,VALID,20.9843,VALID,22,VALID,0.147352,
2002-05-04, 00:34:00,VALID,914.789,VALID,0,VALID,97.3413,VALID,0.0509425,VALID,20.9843,VALID,22,VALID,0,
2002-05-04, 00:35:00,VALID,914.748,VALID,0,VALID,97.4011,VALID,0.0339617,VALID,20.9876,VALID,22,VALID,0,
2002-05-04, 00:36:00,VALID,914.716,VALID,0,VALID,97.4392,VALID,0.118866,VALID,21.0094,VALID,22,VALID,0,
2002-05-04, 00:37:00,VALID,914.685,VALID,0,VALID,97.4825,VALID,0.0849042,VALID,21.0161,VALID,22,VALID,0,
2002-05-04, 00:38:00,VALID,914.657,VALID,0,VALID,97.4672,VALID,0.0169808,VALID,21.0368,VALID,22,VALID,0.0440538,
2002-05-04, 00:39:00,VALID,914.648,VALID,0,VALID,97.3947,VALID,-0.0169808,VALID,21.0379,VALID,46,VALID,0.458482,
2002-05-04, 00:40:00,VALID,914.628,VALID,0,VALID,97.3146,VALID,-0.0679233,VALID,21.0252,VALID,64,VALID,0.717722,
2002-05-04, 00:41:00,VALID,914.624,VALID,0,VALID,97.3134,VALID,-0.0509425,VALID,21.005,VALID,61,VALID,0.555715,
2002-05-04, 00:42:00,VALID,914.637,VALID,0,VALID,97.354,VALID,-0.0339617,VALID,21.0088,VALID,61,VALID,0.212277,
2002-05-04, 00:43:00,VALID,914.636,VALID,0,VALID,97.3235,VALID,-0.0169808,VALID,21.0153,VALID,61,VALID,0.00360577,
2002-05-04, 00:44:00,VALID,914.644,VALID,0,VALID,97.321,VALID,-0.0509425,VALID,21.0085,VALID,61,VALID,0,
2002-05-04, 00:45:00,VALID,914.642,VALID,0,VALID,97.368,VALID,-0.0679233,VALID,21.0153,VALID,61,VALID,0.196875,
2002-05-04, 00:46:00,VALID,914.639,VALID,0,VALID,97.3795,VALID,-0.0679233,VALID,21.0209,VALID,10,VALID,0.692308,
2002-05-04, 00:47:00,VALID,914.636,VALID,0,VALID,97.466,VALID,-0.0679233,VALID,21.0379,VALID,247,VALID,0.966463,
2002-05-04, 00:48:00,VALID,914.626,VALID,0,VALID,97.5422,VALID,-0.0339617,VALID,21.0505,VALID,249,VALID,0.772171,
2002-05-04, 00:49:00,VALID,914.624,VALID,0,VALID,97.5893,VALID,-0.0509425,VALID,21.0637,VALID,250,VALID,0.346284,
2002-05-04, 00:50:00,VALID,914.632,VALID,0,VALID,97.6414,VALID,-0.0509425,VALID,21.0734,VALID,264,VALID,0.351763,
2002-05-04, 00:51:00,VALID,914.645,VALID,0,VALID,97.7063,VALID,-0.0509425,VALID,21.0729,VALID,295,VALID,0.248944,
2002-05-04, 00:52:00,VALID,914.657,VALID,0,VALID,97.7597,VALID,-0.0339617,VALID,21.0858,VALID,4,VALID,0.641927,
2002-05-04, 00:53:00,VALID,914.674,VALID,0,VALID,97.8093,VALID,-0.0339617,VALID,21.0982,VALID,13,VALID,0.504297,
2002-05-04, 00:54:00,VALID,914.684,VALID,0,VALID,97.8093,VALID,0.0339617,VALID,21.1171,VALID,13,VALID,0.314019,
2002-05-04, 00:55:00,VALID,914.684,VALID,0,VALID,97.8182,VALID,0.0339617,VALID,21.1203,VALID,13,VALID,0.0182292,
2002-05-04, 00:56:00,VALID,914.69,VALID,0,VALID,97.808,VALID,0.0339617,VALID,21.1198,VALID,13,VALID,0.00889757,
2002-05-04, 00:57:00,VALID,914.699,VALID,0,VALID,97.7978,VALID,0.0339617,VALID,21.1332,VALID,13,VALID,0,
2002-05-04, 00:58:00,VALID,914.705,VALID,0,VALID,97.761,VALID,0.0509425,VALID,21.1235,VALID,13,VALID,0,
2002-05-04, 00:59:00,VALID,914.689,VALID,0,VALID,97.7877,VALID,0.0169808,VALID,21.12,VALID,13,VALID,0,
2002-05-04, 01:00:00,VALID,914.674,VALID,0,VALID,97.7851,VALID,0.0339617,VALID,21.1203,VALID,13,VALID,0,
2002-05-04, 01:01:00,VALID,914.671,VALID,0,VALID,97.7432,VALID,0.0679233,VALID,21.1136,VALID,13,VALID,0,
2002-05-04, 01:02:00,VALID,914.653,VALID,0,VALID,97.7546,VALID,0.0169808,VALID,21.1031,VALID,13,VALID,0.0376234,
2002-05-04, 01:03:00,VALID,914.649,VALID,0,VALID,97.7203,VALID,0.0169808,VALID,21.1074,VALID,348,VALID,0.180357,
2002-05-04, 01:04:00,VALID,914.642,VALID,0,VALID,97.7368,VALID,0.0509425,VALID,21.1009,VALID,256,VALID,0.473958,
2002-05-04, 01:05:00,VALID,914.649,VALID,0,VALID,97.7432,VALID,0.0339617,VALID,21.078,VALID,255,VALID,0.516681,
2002-05-04, 01:06:00,VALID,914.635,VALID,0,VALID,97.8093,VALID,0.0169808,VALID,21.085,VALID,255,VALID,0.318164,
2002-05-04, 01:07:00,VALID,914.632,VALID,0,VALID,97.8741,VALID,0.0339617,VALID,21.0877,VALID,255,VALID,0.122596,
2002-05-04, 01:08:00,VALID,914.625,VALID,0,VALID,97.939,VALID,-0.0169808,VALID,21.0853,VALID,255,VALID,0.0632622,
2002-05-04, 01:09:00,VALID,914.617,VALID,0,VALID,97.9593,VALID,-0.0679233,VALID,21.0995,VALID,255,VALID,0.265836,
2002-05-04, 01:10:00,VALID,914.608,VALID,0,VALID,97.9644,VALID,-0.0849042,VALID,21.0794,VALID,255,VALID,0.197424,
2002-05-04, 01:11:00,VALID,914.607,VALID,0,VALID,97.986,VALID,-0.0849042,VALID,21.0737,VALID,255,VALID,0.0917468,
2002-05-04, 01:12:00,VALID,914.576,VALID,0,VALID,98.0509,VALID,-0.101885,VALID,21.0866,VALID,302,VALID,0.244088,
2002-05-04, 01:13:00,VALID,914.545,VALID,0,VALID,98.159,VALID,-0.101885,VALID,21.099,VALID,35,VALID,0.20638,
2002-05-04, 01:14:00,VALID,914.517,VALID,0,VALID,98.1679,VALID,-0.0679233,VALID,21.1189,VALID,334,VALID,0.146484,
2002-05-04, 01:15:00,VALID,914.48,VALID,0,VALID,98.1717,VALID,-0.0849042,VALID,21.1057,VALID,317,VALID,0.162109,
2002-05-04, 01:16:00,VALID,914.446,VALID,0,VALID,98.1577,VALID,-0.0849042,VALID,21.1162,VALID,317,VALID,0.0423177,
2002-05-04, 01:17:00,VALID,914.411,VALID,0,VALID,98.1234,VALID,-0.0849042,VALID,21.0931,VALID,317,VALID,0,
2002-05-04, 01:18:00,VALID,914.388,VALID,0,VALID,98.1285,VALID,-0.0169808,VALID,21.0794,VALID,317,VALID,0,
2002-05-04, 01:19:00,VALID,914.373,VALID,0,VALID,98.1615,VALID,-0.0339617,VALID,21.0829,VALID,347,VALID,0.321752,
2002-05-04, 01:20:00,VALID,914.373,VALID,0,VALID,98.173,VALID,-0.101885,VALID,21.096,VALID,18,VALID,0.587891,
2002-05-04, 01:21:00,VALID,914.371,VALID,0,VALID,98.1717,VALID,-0.0509425,VALID,21.0858,VALID,23,VALID,0.566741,
2002-05-04, 01:22:00,VALID,914.359,VALID,0,VALID,98.1971,VALID,-0.0339617,VALID,21.0893,VALID,26,VALID,0.532689,
2002-05-04, 01:23:00,VALID,914.351,VALID,0,VALID,98.1653,VALID,-0.0849042,VALID,21.0931,VALID,46,VALID,0.617804,
2002-05-04, 01:24:00,VALID,914.337,VALID,0,VALID,98.1297,VALID,-0.0849042,VALID,21.067,VALID,51,VALID,0.548884,
2002-05-04, 01:25:00,VALID,914.3,VALID,0,VALID,98.1183,VALID,-0.0509425,VALID,21.0602,VALID,61,VALID,0.52504,
2002-05-04, 01:26:00,VALID,914.271,VALID,0,VALID,98.1246,VALID,-0.0509425,VALID,21.0414,VALID,62,VALID,0.25739,
2002-05-04, 01:27:00,VALID,914.218,VALID,0,VALID,98.1793,VALID,-0.0849042,VALID,21.0379,VALID,60,VALID,0.183398,
2002-05-04, 01:28:00,VALID,914.183,VALID,0,VALID,98.2098,VALID,-0.0849042,VALID,21.0416,VALID,60,VALID,0.229768,
2002-05-04, 01:29:00,VALID,914.168,VALID,0,VALID,98.2175,VALID,-0.0679233,VALID,21.0411,VALID,59,VALID,0.439215,
2002-05-04, 01:30:00,VALID,914.174,VALID,0,VALID,98.1946,VALID,-0.0849042,VALID,21.0349,VALID,57,VALID,0.732897,
2002-05-04, 01:31:00,VALID,914.194,VALID,0,VALID,98.1539,VALID,-0.101885,VALID,21.0187,VALID,50,VALID,0.72065,
2002-05-04, 01:32:00,VALID,914.201,VALID,0,VALID,98.1386,VALID,-0.0849042,VALID,21.0026,VALID,46,VALID,0.615184,
2002-05-04, 01:33:00,VALID,914.211,VALID,0,VALID,98.1424,VALID,-0.0849042,VALID,20.9929,VALID,45,VALID,0.507401,
2002-05-04, 01:34:00,VALID,914.21,VALID,0,VALID,98.145,VALID,-0.0849042,VALID,20.9934,VALID,44,VALID,0.546658,
2002-05-04, 01:35:00,VALID,914.206,VALID,0,VALID,98.1844,VALID,-0.0849042,VALID,20.98,VALID,41,VALID,0.219922,
2002-05-04, 01:36:00,VALID,914.199,VALID,0,VALID,98.1882,VALID,-0.0679233,VALID,20.97,VALID,44,VALID,0.259549,
2002-05-04, 01:37:00,VALID,914.175,VALID,0,VALID,98.1653,VALID,-0.0339617,VALID,20.9533,VALID,98,VALID,0.375868,
2002-05-04, 01:38:00,VALID,914.147,VALID,0,VALID,98.1399,VALID,0,VALID,20.9498,VALID,124,VALID,0.490668,
2002-05-04, 01:39:00,VALID,914.118,VALID,0,VALID,98.1348,VALID,0.0509425,VALID,20.9232,VALID,133,VALID,0.676809,
2002-05-04, 01:40:00,VALID,914.098,VALID,0,VALID,98.1526,VALID,0.0509425,VALID,20.8973,VALID,114,VALID,0.63199,
2002-05-04, 01:41:00,VALID,914.071,VALID,0,VALID,98.2086,VALID,0.0339617,VALID,20.8909,VALID,100,VALID,0.705078,
2002-05-04, 01:42:00,VALID,914.057,VALID,0,VALID,98.2823,VALID,0.0679233,VALID,20.8844,VALID,64,VALID,0.597098,
2002-05-04, 01:43:00,VALID,914.037,VALID,0,VALID,98.3395,VALID,0.0509425,VALID,20.8745,VALID,63,VALID,0.737253,
2002-05-04, 01:44:00,VALID,914.025,VALID,0,VALID,98.3701,VALID,0.0509425,VALID,20.8882,VALID,61,VALID,0.707648,
2002-05-04, 01:45:00,VALID,914.014,VALID,0,VALID,98.4006,VALID,0.0339617,VALID,20.8615,VALID,42,VALID,0.596429,
2002-05-04, 01:46:00,VALID,913.995,VALID,0,VALID,98.4375,VALID,0.0169808,VALID,20.8653,VALID,29,VALID,0.637019,
2002-05-04, 01:47:00,VALID,913.975,VALID,0,VALID,98.4769,VALID,0.0169808,VALID,20.8551,VALID,32,VALID,0.457137,
2002-05-04, 01:48:00,VALID,913.966,VALID,0,VALID,98.5366,VALID,0.0339617,VALID,20.8688,VALID,29,VALID,0.361328,
2002-05-04, 01:49:00,VALID,913.943,VALID,0,VALID,98.5328,VALID,0.0169808,VALID,20.8583,VALID,20,VALID,0.325721,
2002-05-04, 01:50:00,VALID,913.918,VALID,0,VALID,98.4972,VALID,0.0339617,VALID,20.8586,VALID,15,VALID,0.274771,
2002-05-04, 01:51:00,VALID,913.903,VALID,0,VALID,98.5227,VALID,0.0509425,VALID,20.8392,VALID,15,VALID,0.15266,
2002-05-04, 01:52:00,VALID,913.866,VALID,0,VALID,98.4603,VALID,0.0679233,VALID,20.826,VALID,79,VALID,0.470228,
2002-05-04, 01:53:00,VALID,913.836,VALID,0,VALID,98.4718,VALID,0,VALID,20.8014,VALID,109,VALID,0.601162,
2002-05-04, 01:54:00,VALID,913.8,VALID,0,VALID,98.5239,VALID,-0.0849042,VALID,20.7694,VALID,121,VALID,0.521115,
2002-05-04, 01:55:00,VALID,913.766,VALID,0,VALID,98.5455,VALID,-0.0509425,VALID,20.7828,VALID,124,VALID,0.395616,
2002-05-04, 01:56:00,VALID,913.72,VALID,0,VALID,98.5684,VALID,-0.0679233,VALID,20.7667,VALID,126,VALID,0.412695,
2002-05-04, 01:57:00,VALID,913.694,VALID,0,VALID,98.6002,VALID,-0.0849042,VALID,20.76,VALID,128,VALID,0.454427,
2002-05-04, 01:58:00,VALID,913.684,VALID,0,VALID,98.6206,VALID,-0.0509425,VALID,20.7503,VALID,123,VALID,0.432726,
2002-05-04, 01:59:00,VALID,913.678,VALID,0,VALID,98.6396,VALID,-0.0679233,VALID,20.747,VALID,125,VALID,0.289497,
2002-05-04, 02:00:00,VALID,913.671,VALID,0,VALID,98.6702,VALID,-0.0849042,VALID,20.7443,VALID,124,VALID,0.571957,
2002-05-04, 02:01:00,VALID,913.681,VALID,0,VALID,98.6956,VALID,-0.0679233,VALID,20.7441,VALID,122,VALID,0.558183,
2002-05-04, 02:02:00,VALID,913.688,VALID,0,VALID,98.7147,VALID,-0.0679233,VALID,20.7373,VALID,115,VALID,0.599175,
2002-05-04, 02:03:00,VALID,913.697,VALID,0,VALID,98.7465,VALID,-0.0339617,VALID,20.7309,VALID,99,VALID,0.470982,
2002-05-04, 02:04:00,VALID,913.691,VALID,0,VALID,98.7655,VALID,-0.101885,VALID,20.7309,VALID,92,VALID,0.443873,
2002-05-04, 02:05:00,VALID,913.682,VALID,0,VALID,98.7477,VALID,-0.0849042,VALID,20.7279,VALID,81,VALID,0.515625,
2002-05-04, 02:06:00,VALID,913.665,VALID,0,VALID,98.7566,VALID,-0.101885,VALID,20.7182,VALID,80,VALID,0.439509,
2002-05-04, 02:07:00,VALID,913.658,VALID,0,VALID,98.7732,VALID,-0.0849042,VALID,20.7115,VALID,79,VALID,0.44351,
2002-05-04, 02:08:00,VALID,913.64,VALID,0,VALID,98.7795,VALID,0,VALID,20.7045,VALID,79,VALID,0.382813,
2002-05-04, 02:09:00,VALID,913.633,VALID,0,VALID,98.7821,VALID,0.0169808,VALID,20.6905,VALID,76,VALID,0.428125,
2002-05-04, 02:10:00,VALID,913.612,VALID,0,VALID,98.7579,VALID,0.0169808,VALID,20.6878,VALID,73,VALID,0.548678,
2002-05-04, 02:11:00,VALID,913.609,VALID,0,VALID,98.7401,VALID,0.0849042,VALID,20.6649,VALID,74,VALID,0.650534,
2002-05-04, 02:12:00,VALID,913.581,VALID,0,VALID,98.7465,VALID,0.0339617,VALID,20.655,VALID,74,VALID,0.679476,
2002-05-04, 02:13:00,VALID,913.56,VALID,0,VALID,98.749,VALID,0.0679233,VALID,20.6289,VALID,76,VALID,0.696579,
2002-05-04, 02:14:00,VALID,913.542,VALID,0,VALID,98.7744,VALID,0.0169808,VALID,20.6229,VALID,91,VALID,0.766827,
2002-05-04, 02:15:00,VALID,913.505,VALID,0,VALID,98.7821,VALID,0.0679233,VALID,20.61,VALID,98,VALID,0.924198,
2002-05-04, 02:16:00,VALID,913.485,VALID,0,VALID,98.8088,VALID,0.0849042,VALID,20.6001,VALID,103,VALID,1.05317,
2002-05-04, 02:17:00,VALID,913.463,VALID,0,VALID,98.8278,VALID,0.0679233,VALID,20.5807,VALID,111,VALID,0.913477,
2002-05-04, 02:18:00,VALID,913.44,VALID,0,VALID,98.8723,VALID,0.0509425,VALID,20.5812,VALID,126,VALID,0.811415,
2002-05-04, 02:19:00,VALID,913.434,VALID,0,VALID,98.913,VALID,0.0509425,VALID,20.5839,VALID,129,VALID,0.840712,
2002-05-04, 02:20:00,VALID,913.423,VALID,0,VALID,98.9397,VALID,0.0679233,VALID,20.6001,VALID,126,VALID,1.12674,
2002-05-04, 02:21:00,VALID,913.405,VALID,0,VALID,98.9499,VALID,0.0169808,VALID,20.6038,VALID,119,VALID,1.14124,
2002-05-04, 02:22:00,VALID,913.399,VALID,0,VALID,98.9601,VALID,0.0169808,VALID,20.6046,VALID,103,VALID,0.975535,
2002-05-04, 02:23:00,VALID,913.397,VALID,0,VALID,98.9766,VALID,0.0509425,VALID,20.6041,VALID,98,VALID,0.970052,
2002-05-04, 02:24:00,VALID,913.396,VALID,0,VALID,98.983,VALID,0.0679233,VALID,20.6033,VALID,87,VALID,0.746205,
2002-05-04, 02:25:00,VALID,913.407,VALID,0,VALID,98.9868,VALID,0.0339617,VALID,20.5936,VALID,90,VALID,0.670847,
2002-05-04, 02:26:00,VALID,913.393,VALID,0,VALID,98.9957,VALID,0.0509425,VALID,20.5946,VALID,104,VALID,0.717722,
2002-05-04, 02:27:00,VALID,913.409,VALID,0,VALID,99.0097,VALID,0.0169808,VALID,20.5974,VALID,109,VALID,0.820313,
2002-05-04, 02:28:00,VALID,913.409,VALID,0,VALID,99.0211,VALID,0.0169808,VALID,20.5882,VALID,111,VALID,0.279447,
2002-05-04, 02:29:00,VALID,913.401,VALID,0,VALID,99.0275,VALID,0.0339617,VALID,20.5914,VALID,120,VALID,0.477618,
2002-05-04, 02:30:00,VALID,913.382,VALID,0,VALID,99.0326,VALID,0.0169808,VALID,20.5879,VALID,124,VALID,0.379492,
2002-05-04, 02:31:00,VALID,913.378,VALID,0,VALID,99.0478,VALID,0.0339617,VALID,20.5914,VALID,140,VALID,0.603165,
2002-05-04, 02:32:00,VALID,913.356,VALID,0,VALID,99.0593,VALID,0,VALID,20.6043,VALID,147,VALID,0.609947,
2002-05-04, 02:33:00,VALID,913.349,VALID,0,VALID,99.0694,VALID,0.0169808,VALID,20.6006,VALID,139,VALID,0.425253,
2002-05-04, 02:34:00,VALID,913.344,VALID,0,VALID,99.0733,VALID,0.0339617,VALID,20.607,VALID,139,VALID,0.0728463,
2002-05-04, 02:35:00,VALID,913.332,VALID,0,VALID,99.086,VALID,0.0679233,VALID,20.6105,VALID,138,VALID,0.329728,
2002-05-04, 02:36:00,VALID,913.329,VALID,0,VALID,99.0936,VALID,0.0509425,VALID,20.6235,VALID,137,VALID,0.251478,
2002-05-04, 02:37:00,VALID,913.325,VALID,0,VALID,99.0885,VALID,0.0339617,VALID,20.6098,VALID,137,VALID,0.00173611,
2002-05-04, 02:38:00,VALID,913.323,VALID,0,VALID,99.0923,VALID,0,VALID,20.6175,VALID,137,VALID,0.0585938,
2002-05-04, 02:39:00,VALID,913.315,VALID,0,VALID,99.0898,VALID,-0.0169808,VALID,20.6183,VALID,137,VALID,0.25651,
2002-05-04, 02:40:00,VALID,913.316,VALID,0,VALID,99.1038,VALID,-0.0509425,VALID,20.6352,VALID,137,VALID,0.246528,
2002-05-04, 02:41:00,VALID,913.318,VALID,0,VALID,99.1063,VALID,-0.0339617,VALID,20.6444,VALID,124,VALID,0.546875,
2002-05-04, 02:42:00,VALID,913.326,VALID,0,VALID,99.1267,VALID,-0.0339617,VALID,20.66,VALID,112,VALID,0.584704,
2002-05-04, 02:43:00,VALID,913.332,VALID,0,VALID,99.1305,VALID,-0.0849042,VALID,20.6668,VALID,107,VALID,0.513569,
2002-05-04, 02:44:00,VALID,913.323,VALID,0,VALID,99.1216,VALID,-0.0339617,VALID,20.6663,VALID,113,VALID,0.51454,
2002-05-04, 02:45:00,VALID,913.309,VALID,0,VALID,99.1216,VALID,-0.0339617,VALID,20.66,VALID,120,VALID,0.582812,
2002-05-04, 02:46:00,VALID,913.283,VALID,0,VALID,99.1178,VALID,-0.101885,VALID,20.667,VALID,130,VALID,0.497122,
2002-05-04, 02:47:00,VALID,913.267,VALID,0,VALID,99.1254,VALID,-0.0339617,VALID,20.6697,VALID,141,VALID,0.599301,
2002-05-04, 02:48:00,VALID,913.257,VALID,0,VALID,99.1356,VALID,-0.0679233,VALID,20.6996,VALID,139,VALID,0.525,
2002-05-04, 02:49:00,VALID,913.239,VALID,0,VALID,99.1394,VALID,-0.0679233,VALID,20.7023,VALID,144,VALID,0.611779,
2002-05-04, 02:50:00,VALID,913.237,VALID,0,VALID,99.1368,VALID,-0.0339617,VALID,20.7155,VALID,146,VALID,0.879856,
2002-05-04, 02:51:00,VALID,913.229,VALID,0,VALID,99.1318,VALID,-0.0509425,VALID,20.7317,VALID,139,VALID,0.735352,
2002-05-04, 02:52:00,VALID,913.231,VALID,0,VALID,99.1241,VALID,-0.0339617,VALID,20.7346,VALID,133,VALID,0.429487,
2002-05-04, 02:53:00,VALID,913.211,VALID,0,VALID,99.1203,VALID,0.0339617,VALID,20.7376,VALID,138,VALID,0.499238,
2002-05-04, 02:54:00,VALID,913.194,VALID,0,VALID,99.1139,VALID,0.0679233,VALID,20.7234,VALID,120,VALID,0.427365,
2002-05-04, 02:55:00,VALID,913.181,VALID,0,VALID,99.1038,VALID,0.0509425,VALID,20.7371,VALID,143,VALID,0.632179,
2002-05-04, 02:56:00,VALID,913.165,VALID,0,VALID,99.1025,VALID,0.0339617,VALID,20.7169,VALID,149,VALID,0.638622,
2002-05-04, 02:57:00,VALID,913.157,VALID,0,VALID,99.0923,VALID,0.0339617,VALID,20.7207,VALID,159,VALID,0.636613,
2002-05-04, 02:58:00,VALID,913.122,VALID,0,VALID,99.0847,VALID,0.0509425,VALID,20.7042,VALID,150,VALID,0.805122,
2002-05-04, 02:59:00,VALID,913.113,VALID,0,VALID,99.086,VALID,0.0849042,VALID,20.7104,VALID,153,VALID,0.860156,
2002-05-04, 03:00:00,VALID,913.089,VALID,0,VALID,99.0809,VALID,0.0509425,VALID,20.7166,VALID,151,VALID,0.91428,
2002-05-04, 03:01:00,VALID,913.062,VALID,0,VALID,99.0936,VALID,0.0339617,VALID,20.7269,VALID,152,VALID,1.09049,
2002-05-04, 03:02:00,VALID,913.052,VALID,0,VALID,99.0898,VALID,0.0679233,VALID,20.74,VALID,150,VALID,1.07899,
2002-05-04, 03:03:00,VALID,913.052,VALID,0,VALID,99.0822,VALID,0.0339617,VALID,20.7398,VALID,144,VALID,0.838816,
2002-05-04, 03:04:00,VALID,913.047,VALID,0,VALID,99.072,VALID,0.0169808,VALID,20.7328,VALID,140,VALID,0.617804,
2002-05-04, 03:05:00,VALID,913.042,VALID,0,VALID,99.0644,VALID,0.0509425,VALID,20.7333,VALID,142,VALID,0.717448,
2002-05-04, 03:06:00,VALID,913.056,VALID,0,VALID,99.0351,VALID,0.0339617,VALID,20.7271,VALID,139,VALID,0.579018,
2002-05-04, 03:07:00,VALID,913.054,VALID,0,VALID,99.0377,VALID,0.0169808,VALID,20.704,VALID,146,VALID,0.534951,
2002-05-04, 03:08:00,VALID,913.04,VALID,0,VALID,99.0338,VALID,-0.0509425,VALID,20.7013,VALID,128,VALID,0.291324,
2002-05-04, 03:09:00,VALID,913.024,VALID,0,VALID,99.0326,VALID,-0.0339617,VALID,20.6988,VALID,150,VALID,0.369643,
2002-05-04, 03:10:00,VALID,913.003,VALID,0,VALID,99.0186,VALID,-0.0169808,VALID,20.6991,VALID,138,VALID,0.322115,
2002-05-04, 03:11:00,VALID,912.987,VALID,0,VALID,98.9944,VALID,-0.0509425,VALID,20.6931,VALID,134,VALID,0.38788,
2002-05-04, 03:12:00,VALID,912.96,VALID,0,VALID,99.002,VALID,-0.0509425,VALID,20.7028,VALID,134,VALID,0.125781,
2002-05-04, 03:13:00,VALID,912.946,VALID,0,VALID,98.9957,VALID,-0.0509425,VALID,20.6964,VALID,134,VALID,0.262821,
2002-05-04, 03:14:00,VALID,912.935,VALID,0,VALID,98.9779,VALID,-0.0339617,VALID,20.6856,VALID,134,VALID,0.292302,
2002-05-04, 03:15:00,VALID,912.916,VALID,0,VALID,98.9664,VALID,-0.0509425,VALID,20.6829,VALID,134,VALID,0.277449,
2002-05-04, 03:16:00,VALID,912.908,VALID,0,VALID,98.9512,VALID,-0.0169808,VALID,20.6767,VALID,169,VALID,0.414696,
2002-05-04, 03:17:00,VALID,912.888,VALID,0,VALID,98.9664,VALID,-0.0169808,VALID,20.6862,VALID,169,VALID,0.800481,
2002-05-04, 03:18:00,VALID,912.89,VALID,0,VALID,98.9703,VALID,-0.0679233,VALID,20.712,VALID,166,VALID,0.721706,
2002-05-04, 03:19:00,VALID,912.861,VALID,0,VALID,98.9766,VALID,-0.0679233,VALID,20.7249,VALID,156,VALID,0.590278,
2002-05-04, 03:20:00,VALID,912.862,VALID,0,VALID,98.9563,VALID,-0.0509425,VALID,20.7379,VALID,148,VALID,0.89043,
2002-05-04, 03:21:00,VALID,912.84,VALID,0,VALID,98.9486,VALID,-0.0169808,VALID,20.7476,VALID,151,VALID,0.697483,
2002-05-04, 03:22:00,VALID,912.844,VALID,0,VALID,98.9092,VALID,-0.0169808,VALID,20.7414,VALID,122,VALID,0.627604,
2002-05-04, 03:23:00,VALID,912.837,VALID,0,VALID,98.8584,VALID,0.0169808,VALID,20.7244,VALID,125,VALID,0.500651,
2002-05-04, 03:24:00,VALID,912.842,VALID,0,VALID,98.8266,VALID,0.0509425,VALID,20.7107,VALID,108,VALID,0.570107,
2002-05-04, 03:25:00,VALID,912.834,VALID,0,VALID,98.8342,VALID,0.0679233,VALID,20.7072,VALID,120,VALID,0.811266,
2002-05-04, 03:26:00,VALID,912.827,VALID,0,VALID,98.8838,VALID,0.101885,VALID,20.743,VALID,129,VALID,0.715278,
2002-05-04, 03:27:00,VALID,912.807,VALID,0,VALID,98.838,VALID,0.101885,VALID,20.7562,VALID,101,VALID,0.38192,
2002-05-04, 03:28:00,VALID,912.777,VALID,0,VALID,98.7846,VALID,0.0339617,VALID,20.743,VALID,141,VALID,0.605058,
2002-05-04, 03:29:00,VALID,912.752,VALID,0,VALID,98.7681,VALID,0.0679233,VALID,20.7366,VALID,133,VALID,0.5625,
2002-05-04, 03:30:00,VALID,912.728,VALID,0,VALID,98.735,VALID,0.0679233,VALID,20.7497,VALID,151,VALID,0.330357,